User: anonymous   Login
Location: Bishop's University Astronomical Observatory
(45.3661°N, 71.8475°W)
Time: 20:18:38
(UTC-04:00)
Language:

Meteor 2-5 Rocket - Orbit

View from above orbital plane
View from above orbital plane
View from above satellite
View from above satellite

Ground track
Ground track

The orbit data is extracted from the following two-line orbital elements,

1 11608U 79095B   14297.00242297  .00000343  00000-0  19927-3 0  6791
2 11608 081.2155 069.5041 0054243 000.0733 136.4621 14.06022741794163
Epoch (UTC): 24 October 2014 00:03:29
Eccentricity: 0.0054243
inclination: 81.2155°
perigee height: 833 km
apogee height: 912 km
right ascension of ascending node: 69.5041°
argument of perigee: 0.0733°
revolutions per day: 14.06022741
mean anomaly at epoch: 136.4621°
orbit number at epoch: 79416

The dashed part of the orbit path shows where the satellite is in the earth's shadow,  

DLR